Year,Month,Day,Hour,Minute,Value (Times are PST for temperature in C)
2009,07,03,00,00,14.70
2009,07,03,00,05,14.70
2009,07,03,00,06,14.50
2009,07,03,00,07,14.50
2009,07,03,00,08,14.50
2009,07,03,00,09,14.50
2009,07,03,00,10,14.50
2009,07,03,00,11,14.50
2009,07,03,00,12,14.50
2009,07,03,00,13,14.50
2009,07,03,00,14,14.50
2009,07,03,00,15,14.50
2009,07,03,00,16,14.50
2009,07,03,00,17,14.50
2009,07,03,00,18,14.50
2009,07,03,00,19,14.40
2009,07,03,00,20,14.40
2009,07,03,00,21,14.40
2009,07,03,00,22,14.40
2009,07,03,00,23,14.40
2009,07,03,00,24,14.40
2009,07,03,00,25,14.40
2009,07,03,00,26,14.40
2009,07,03,00,27,14.30
2009,07,03,00,28,14.30
2009,07,03,00,29,14.30
2009,07,03,00,30,14.30
2009,07,03,00,31,14.30
2009,07,03,00,32,14.30
2009,07,03,00,33,14.30
2009,07,03,00,34,14.30
2009,07,03,00,35,14.30
2009,07,03,00,36,14.30
2009,07,03,00,37,14.30
2009,07,03,00,38,14.20
2009,07,03,00,39,14.20
2009,07,03,00,40,14.20
2009,07,03,00,41,14.20
2009,07,03,00,42,14.20
2009,07,03,00,43,14.20
2009,07,03,00,44,14.20
2009,07,03,00,45,14.20
2009,07,03,00,46,14.10
2009,07,03,00,47,14.10
2009,07,03,00,48,14.10
2009,07,03,00,49,14.10
2009,07,03,00,50,14.10
2009,07,03,00,51,14.10
2009,07,03,00,52,14.10
2009,07,03,00,53,14.00
2009,07,03,00,54,14.00
2009,07,03,00,55,14.00
2009,07,03,00,56,14.00
2009,07,03,00,57,14.00
2009,07,03,00,58,14.00
2009,07,03,00,59,14.00
2009,07,03,01,00,14.00
2009,07,03,01,01,13.90
2009,07,03,01,02,13.90
2009,07,03,01,03,13.90
2009,07,03,01,04,13.90
2009,07,03,01,05,13.90
2009,07,03,01,06,13.90
2009,07,03,01,07,13.80
2009,07,03,01,08,13.80
2009,07,03,01,09,13.80
2009,07,03,01,10,13.80
2009,07,03,01,11,13.80
2009,07,03,01,12,13.80
2009,07,03,01,13,13.80
2009,07,03,01,14,13.80
2009,07,03,01,15,13.80
2009,07,03,01,16,13.80
2009,07,03,01,17,13.80
2009,07,03,01,18,13.80
2009,07,03,01,19,13.70
2009,07,03,01,20,13.70
2009,07,03,01,21,13.70
2009,07,03,01,22,13.70
2009,07,03,01,23,13.70
2009,07,03,01,24,13.70
2009,07,03,01,25,13.70
2009,07,03,01,26,13.70
2009,07,03,01,27,13.70
2009,07,03,01,28,13.70
2009,07,03,01,29,13.70
2009,07,03,01,30,13.70
2009,07,03,01,31,13.70
2009,07,03,01,32,13.70
2009,07,03,01,33,13.60
2009,07,03,01,34,13.60
2009,07,03,01,35,13.60
2009,07,03,01,36,13.60
2009,07,03,01,37,13.60
2009,07,03,01,38,13.60
2009,07,03,01,39,13.50
2009,07,03,01,40,13.50
2009,07,03,01,41,13.50
2009,07,03,01,42,13.50
2009,07,03,01,43,13.40
2009,07,03,01,44,13.40
2009,07,03,01,45,13.40
2009,07,03,01,46,13.40
2009,07,03,01,47,13.40
2009,07,03,01,48,13.40
2009,07,03,01,49,13.30
2009,07,03,01,50,13.30
2009,07,03,01,51,13.30
2009,07,03,01,52,13.30
2009,07,03,01,53,13.20
2009,07,03,01,54,13.20
2009,07,03,01,55,13.20
2009,07,03,01,56,13.20
2009,07,03,01,57,13.20
2009,07,03,01,58,13.20
2009,07,03,01,59,13.20
2009,07,03,02,00,13.20
2009,07,03,02,01,13.20
2009,07,03,02,02,13.20
2009,07,03,02,03,13.20
2009,07,03,02,04,13.20
2009,07,03,02,05,13.20
2009,07,03,02,06,13.20
2009,07,03,02,07,13.10
2009,07,03,02,08,13.10
2009,07,03,02,09,13.10
2009,07,03,02,10,13.10
2009,07,03,02,11,13.10
2009,07,03,02,12,13.10
2009,07,03,02,13,13.00
2009,07,03,02,14,13.00
2009,07,03,02,15,13.00
2009,07,03,02,16,13.10
2009,07,03,02,17,13.10
2009,07,03,02,18,13.10
2009,07,03,02,19,13.00
2009,07,03,02,20,13.00
2009,07,03,02,21,13.00
2009,07,03,02,22,13.00
2009,07,03,02,23,13.00
2009,07,03,02,24,13.00
2009,07,03,02,25,13.00
2009,07,03,02,26,13.00
2009,07,03,02,27,13.00
2009,07,03,02,28,13.00
2009,07,03,02,29,13.00
2009,07,03,02,30,13.00
2009,07,03,02,31,13.00
2009,07,03,02,32,12.90
2009,07,03,02,33,12.90
2009,07,03,02,34,12.90
2009,07,03,02,35,12.90
2009,07,03,02,36,12.90
2009,07,03,02,37,12.90
2009,07,03,02,38,12.90
2009,07,03,02,39,12.90
2009,07,03,02,40,12.90
2009,07,03,02,41,12.90
2009,07,03,02,42,12.90
2009,07,03,02,43,12.90
2009,07,03,02,44,12.90
2009,07,03,02,45,12.90
2009,07,03,02,46,12.90
2009,07,03,02,47,12.90
2009,07,03,02,48,12.90
2009,07,03,02,49,12.90
2009,07,03,02,50,12.90
2009,07,03,02,51,12.90
2009,07,03,02,52,12.90
2009,07,03,02,53,12.90
2009,07,03,02,54,12.90
2009,07,03,02,55,12.90
2009,07,03,02,56,12.90
2009,07,03,02,57,12.90
2009,07,03,02,58,12.90
2009,07,03,02,59,12.80
2009,07,03,03,00,12.80
2009,07,03,03,01,12.80
2009,07,03,03,02,12.80
2009,07,03,03,03,12.80
2009,07,03,03,04,12.70
2009,07,03,03,05,12.70
2009,07,03,03,06,12.70
2009,07,03,03,07,12.70
2009,07,03,03,08,12.60
2009,07,03,03,09,12.60
2009,07,03,03,10,12.60
2009,07,03,03,11,12.50
2009,07,03,03,12,12.50
2009,07,03,03,13,12.50
2009,07,03,03,14,12.40
2009,07,03,03,15,12.40
2009,07,03,03,16,12.40
2009,07,03,03,17,12.40
2009,07,03,03,18,12.40
2009,07,03,03,19,12.40
2009,07,03,03,20,12.40
2009,07,03,03,21,12.40
2009,07,03,03,22,12.30
2009,07,03,03,23,12.30
2009,07,03,03,24,12.30
2009,07,03,03,25,12.40
2009,07,03,03,26,12.40
2009,07,03,03,27,12.30
2009,07,03,03,28,12.30
2009,07,03,03,29,12.30
2009,07,03,03,30,12.30
2009,07,03,03,31,12.20
2009,07,03,03,32,12.20
2009,07,03,03,33,12.20
2009,07,03,03,34,12.10
2009,07,03,03,35,12.10
2009,07,03,03,36,12.10
2009,07,03,03,37,12.00
2009,07,03,03,38,12.00
2009,07,03,03,39,12.00
2009,07,03,03,40,11.90
2009,07,03,03,41,11.90
2009,07,03,03,42,11.90
2009,07,03,03,43,11.90
2009,07,03,03,44,11.90
2009,07,03,03,45,11.90
2009,07,03,03,46,11.90
2009,07,03,03,47,11.90
2009,07,03,03,48,11.90
2009,07,03,03,49,11.90
2009,07,03,03,50,12.00
2009,07,03,03,51,12.00
2009,07,03,03,52,12.00
2009,07,03,03,53,12.10
2009,07,03,03,54,12.10
2009,07,03,03,55,12.10
2009,07,03,03,56,12.10
2009,07,03,03,57,12.10
2009,07,03,03,58,12.00
2009,07,03,03,59,12.00
2009,07,03,04,00,12.00
2009,07,03,04,01,12.00
2009,07,03,04,02,12.00
2009,07,03,04,03,12.00
2009,07,03,04,04,12.00
2009,07,03,04,05,12.00
2009,07,03,04,06,12.00
2009,07,03,04,07,11.90
2009,07,03,04,08,11.90
2009,07,03,04,09,11.90
2009,07,03,04,10,11.90
2009,07,03,04,11,11.90
2009,07,03,04,12,11.90
2009,07,03,04,13,11.90
2009,07,03,04,14,11.90
2009,07,03,04,15,11.90
2009,07,03,04,16,11.90
2009,07,03,04,17,11.90
2009,07,03,04,18,11.90
2009,07,03,04,19,11.90
2009,07,03,04,20,11.90
2009,07,03,04,21,11.90
2009,07,03,04,22,11.90
2009,07,03,04,23,11.90
2009,07,03,04,24,11.90
2009,07,03,04,25,11.90
2009,07,03,04,26,11.90
2009,07,03,04,27,11.90
2009,07,03,04,28,11.90
2009,07,03,04,29,11.90
2009,07,03,04,30,11.90
2009,07,03,04,31,12.00
2009,07,03,04,32,12.00
2009,07,03,04,33,11.90
2009,07,03,04,34,11.90
2009,07,03,04,35,11.90
2009,07,03,04,36,12.00
2009,07,03,04,37,12.00
2009,07,03,04,38,11.90
2009,07,03,04,39,11.90
2009,07,03,04,40,11.90
2009,07,03,04,41,11.90
2009,07,03,04,42,11.90
2009,07,03,04,43,11.90
2009,07,03,04,44,11.90
2009,07,03,04,45,11.90
2009,07,03,04,46,11.90
2009,07,03,04,47,11.90
2009,07,03,04,48,11.90
2009,07,03,04,49,11.90
2009,07,03,04,50,11.80
2009,07,03,04,51,11.80
2009,07,03,04,52,11.80
2009,07,03,04,53,11.80
2009,07,03,04,54,11.80
2009,07,03,04,55,11.80
2009,07,03,04,56,11.80
2009,07,03,04,57,11.80
2009,07,03,04,58,11.80
2009,07,03,04,59,11.80
2009,07,03,05,00,11.80
2009,07,03,05,01,11.80
2009,07,03,05,02,11.80
2009,07,03,05,03,11.80
2009,07,03,05,04,11.80
2009,07,03,05,05,11.80
2009,07,03,05,06,11.80
2009,07,03,05,07,11.80
2009,07,03,05,08,11.80
2009,07,03,05,09,11.90
2009,07,03,05,10,11.90
2009,07,03,05,11,11.90
2009,07,03,05,12,11.90
2009,07,03,05,13,11.90
2009,07,03,05,14,11.90
2009,07,03,05,15,11.90
2009,07,03,05,16,11.90
2009,07,03,05,17,11.90
2009,07,03,05,18,11.90
2009,07,03,05,19,11.90
2009,07,03,05,20,11.90
2009,07,03,05,21,11.90
2009,07,03,05,22,11.90
2009,07,03,05,23,11.90
2009,07,03,05,24,12.00
2009,07,03,05,25,12.00
2009,07,03,05,26,12.00
2009,07,03,05,27,12.00
2009,07,03,05,28,11.90
2009,07,03,05,29,11.90
2009,07,03,05,30,11.90
2009,07,03,05,31,11.90
2009,07,03,05,32,11.90
2009,07,03,05,33,11.90
2009,07,03,05,34,11.90
2009,07,03,05,35,11.90
2009,07,03,05,36,12.00
2009,07,03,05,37,12.00
2009,07,03,05,38,12.10
2009,07,03,05,39,12.10
2009,07,03,05,40,12.10
2009,07,03,05,41,12.20
2009,07,03,05,42,12.20
2009,07,03,05,43,12.20
2009,07,03,05,44,12.20
2009,07,03,05,45,12.20
2009,07,03,05,46,12.30
2009,07,03,05,47,12.30
2009,07,03,05,48,12.30
2009,07,03,05,49,12.30
2009,07,03,05,50,12.30
2009,07,03,05,51,12.30
2009,07,03,05,52,12.30
2009,07,03,05,53,12.30
2009,07,03,05,54,12.30
2009,07,03,05,55,12.20
2009,07,03,05,56,12.20
2009,07,03,05,57,12.20
2009,07,03,05,58,12.20
2009,07,03,05,59,12.20
2009,07,03,06,00,12.20
2009,07,03,06,01,12.20
2009,07,03,06,02,12.30
2009,07,03,06,03,12.30
2009,07,03,06,04,12.30
2009,07,03,06,05,12.30
2009,07,03,06,06,12.30
2009,07,03,06,07,12.30
2009,07,03,06,08,12.40
2009,07,03,06,09,12.40
2009,07,03,06,10,12.50
2009,07,03,06,11,12.50
2009,07,03,06,12,12.50
2009,07,03,06,13,12.60
2009,07,03,06,14,12.60
2009,07,03,06,15,12.60
2009,07,03,06,16,12.70
2009,07,03,06,17,12.70
2009,07,03,06,18,12.70
2009,07,03,06,19,12.80
2009,07,03,06,20,12.80
2009,07,03,06,21,12.80
2009,07,03,06,22,12.80
2009,07,03,06,23,12.90
2009,07,03,06,24,12.90
2009,07,03,06,25,12.90
2009,07,03,06,26,12.90
2009,07,03,06,27,13.00
2009,07,03,06,28,13.00
2009,07,03,06,29,13.10
2009,07,03,06,30,13.10
2009,07,03,06,31,13.10
2009,07,03,06,32,13.10
2009,07,03,06,33,13.20
2009,07,03,06,34,13.20
2009,07,03,06,35,13.20
2009,07,03,06,36,13.30
2009,07,03,06,37,13.30
2009,07,03,06,38,13.30
2009,07,03,06,39,13.30
2009,07,03,06,40,13.40
2009,07,03,06,41,13.40
2009,07,03,06,42,13.40
2009,07,03,06,43,13.50
2009,07,03,06,44,13.60
2009,07,03,06,45,13.60
2009,07,03,06,46,13.70
2009,07,03,06,47,13.70
2009,07,03,06,48,13.80
2009,07,03,06,49,13.80
2009,07,03,06,50,13.90
2009,07,03,06,51,13.90
2009,07,03,06,52,14.00
2009,07,03,06,53,14.10
2009,07,03,06,54,14.20
2009,07,03,06,55,14.30
2009,07,03,06,56,14.40
2009,07,03,06,57,14.50
2009,07,03,06,58,14.70
2009,07,03,06,59,14.80
2009,07,03,07,00,14.90
2009,07,03,07,01,15.00
2009,07,03,07,02,15.00
2009,07,03,07,03,15.00
2009,07,03,07,04,15.00
2009,07,03,07,05,15.10
2009,07,03,07,06,15.20
2009,07,03,07,07,15.30
2009,07,03,07,08,15.40
2009,07,03,07,09,15.40
2009,07,03,07,10,15.50
2009,07,03,07,11,15.50
2009,07,03,07,12,15.60
2009,07,03,07,13,15.60
2009,07,03,07,14,15.70
2009,07,03,07,15,15.70
2009,07,03,07,16,15.70
2009,07,03,07,17,15.70
2009,07,03,07,18,15.80
2009,07,03,07,19,15.80
2009,07,03,07,20,15.90
2009,07,03,07,21,15.90
2009,07,03,07,22,15.90
2009,07,03,07,23,16.00
2009,07,03,07,24,16.00
2009,07,03,07,25,16.10
2009,07,03,07,26,16.10
2009,07,03,07,27,16.10
2009,07,03,07,28,16.20
2009,07,03,07,29,16.20
2009,07,03,07,30,16.30
2009,07,03,07,31,16.30
2009,07,03,07,32,16.30
2009,07,03,07,33,16.30
2009,07,03,07,34,16.40
2009,07,03,07,35,16.40
2009,07,03,07,36,16.50
2009,07,03,07,37,16.50
2009,07,03,07,38,16.60
2009,07,03,07,39,16.60
2009,07,03,07,40,16.60
2009,07,03,07,41,16.60
2009,07,03,07,42,16.60
2009,07,03,07,43,16.60
2009,07,03,07,44,16.60
2009,07,03,07,45,16.50
2009,07,03,07,46,16.50
2009,07,03,07,47,16.50
2009,07,03,07,48,16.50
2009,07,03,07,49,16.50
2009,07,03,07,50,16.50
2009,07,03,07,51,16.50
2009,07,03,07,52,16.50
2009,07,03,07,53,16.50
2009,07,03,07,54,16.60
2009,07,03,07,55,16.60
2009,07,03,07,56,16.60
2009,07,03,07,57,16.60
2009,07,03,07,58,16.60
2009,07,03,07,59,16.60
2009,07,03,08,00,16.60
2009,07,03,08,01,16.60
2009,07,03,08,02,16.60
2009,07,03,08,03,16.60
2009,07,03,08,04,16.60
2009,07,03,08,05,16.60
2009,07,03,08,06,16.60
2009,07,03,08,07,16.60
2009,07,03,08,08,16.60
2009,07,03,08,09,16.70
2009,07,03,08,10,16.70
2009,07,03,08,11,16.70
2009,07,03,08,12,16.80
2009,07,03,08,13,16.80
2009,07,03,08,14,16.80
2009,07,03,08,15,16.90
2009,07,03,08,16,16.90
2009,07,03,08,17,16.90
2009,07,03,08,18,16.90
2009,07,03,08,19,16.90
2009,07,03,08,20,16.90
2009,07,03,08,21,16.90
2009,07,03,08,22,17.00
2009,07,03,08,23,17.00
2009,07,03,08,24,17.00
2009,07,03,08,25,17.00
2009,07,03,08,26,16.90
2009,07,03,08,27,16.90
2009,07,03,08,28,16.90
2009,07,03,08,29,16.90
2009,07,03,08,30,16.90
2009,07,03,08,31,16.90
2009,07,03,08,32,16.90
2009,07,03,08,33,16.90
2009,07,03,08,34,16.90
2009,07,03,08,35,16.90
2009,07,03,08,36,16.90
2009,07,03,08,37,16.90
2009,07,03,08,38,17.00
2009,07,03,08,39,17.10
2009,07,03,08,40,17.10
2009,07,03,08,41,17.20
2009,07,03,08,42,17.20
2009,07,03,08,43,17.20
2009,07,03,08,44,17.30
2009,07,03,08,45,17.30
2009,07,03,08,46,17.30
2009,07,03,08,47,17.40
2009,07,03,08,48,17.50
2009,07,03,08,49,17.70
2009,07,03,08,50,17.80
2009,07,03,08,51,18.00
2009,07,03,08,52,18.20
2009,07,03,08,53,18.30
2009,07,03,08,54,18.40
2009,07,03,08,55,18.40
2009,07,03,08,56,18.40
2009,07,03,08,57,18.40
2009,07,03,08,58,18.30
2009,07,03,08,59,18.10
2009,07,03,09,00,18.10
2009,07,03,09,01,18.00
2009,07,03,09,02,17.90
2009,07,03,09,03,17.90
2009,07,03,09,04,17.90
2009,07,03,09,05,17.90
2009,07,03,09,06,17.90
2009,07,03,09,07,17.90
2009,07,03,09,08,17.90
2009,07,03,09,09,17.90
2009,07,03,09,10,17.80
2009,07,03,09,11,17.80
2009,07,03,09,12,17.80
2009,07,03,09,13,17.70
2009,07,03,09,14,17.70
2009,07,03,09,15,17.70
2009,07,03,09,16,17.60
2009,07,03,09,17,17.60
2009,07,03,09,18,17.50
2009,07,03,09,19,17.50
2009,07,03,09,20,17.40
2009,07,03,09,21,17.40
2009,07,03,09,22,17.40
2009,07,03,09,23,17.40
2009,07,03,09,24,17.40
2009,07,03,09,25,17.50
2009,07,03,09,26,17.60
2009,07,03,09,27,17.70
2009,07,03,09,28,17.70
2009,07,03,09,29,17.70
2009,07,03,09,30,17.70
2009,07,03,09,31,17.70
2009,07,03,09,32,17.80
2009,07,03,09,33,17.80
2009,07,03,09,34,17.90
2009,07,03,09,35,18.00
2009,07,03,09,36,18.10
2009,07,03,09,37,18.10
2009,07,03,09,38,18.20
2009,07,03,09,39,18.20
2009,07,03,09,40,18.30
2009,07,03,09,41,18.40
2009,07,03,09,42,18.50
2009,07,03,09,43,18.60
2009,07,03,09,44,18.70
2009,07,03,09,45,18.80
2009,07,03,09,46,19.00
2009,07,03,09,47,19.20
2009,07,03,09,48,19.40
2009,07,03,09,49,19.50
2009,07,03,09,50,19.70
2009,07,03,09,51,20.00
2009,07,03,09,52,20.10
2009,07,03,09,53,20.30
2009,07,03,09,54,20.40
2009,07,03,09,55,20.40
2009,07,03,09,56,20.40
2009,07,03,09,57,20.40
2009,07,03,09,58,20.40
2009,07,03,09,59,20.30
2009,07,03,10,00,20.20
2009,07,03,10,01,20.10
2009,07,03,10,02,20.10
2009,07,03,10,03,20.10
2009,07,03,10,04,20.10
2009,07,03,10,05,20.10
2009,07,03,10,06,20.20
2009,07,03,10,07,20.20
2009,07,03,10,08,20.20
2009,07,03,10,09,20.20
2009,07,03,10,10,20.20
2009,07,03,10,11,20.30
2009,07,03,10,12,20.30
2009,07,03,10,13,20.30
2009,07,03,10,14,20.40
2009,07,03,10,15,20.50
2009,07,03,10,16,20.50
2009,07,03,10,17,20.70
2009,07,03,10,18,20.70
2009,07,03,10,19,20.70
2009,07,03,10,20,20.70
2009,07,03,10,21,20.70
2009,07,03,10,22,20.70
2009,07,03,10,23,20.70
2009,07,03,10,24,20.70
2009,07,03,10,25,20.60
2009,07,03,10,26,20.60
2009,07,03,10,27,20.60
2009,07,03,10,28,20.70
2009,07,03,10,29,20.90
2009,07,03,10,30,21.00
2009,07,03,10,31,21.20
2009,07,03,10,32,21.30
2009,07,03,10,33,21.40
2009,07,03,10,34,21.30
2009,07,03,10,35,21.30
2009,07,03,10,36,21.30
2009,07,03,10,37,21.20
2009,07,03,10,38,21.20
2009,07,03,10,39,21.10
2009,07,03,10,40,20.80
2009,07,03,10,41,20.70
2009,07,03,10,42,20.50
2009,07,03,10,43,20.40
2009,07,03,10,44,20.30
2009,07,03,10,45,20.30
2009,07,03,10,46,20.30
2009,07,03,10,47,20.40
2009,07,03,10,48,20.50
2009,07,03,10,49,20.60
2009,07,03,10,50,20.50
2009,07,03,10,51,20.50
2009,07,03,10,52,20.60
2009,07,03,10,53,20.60
2009,07,03,10,54,20.60
2009,07,03,10,55,20.70
2009,07,03,10,56,20.80
2009,07,03,10,57,20.90
2009,07,03,10,58,21.10
2009,07,03,10,59,21.10
2009,07,03,11,00,21.20
2009,07,03,11,01,21.30
2009,07,03,11,02,21.40
2009,07,03,11,03,21.40
2009,07,03,11,04,21.30
2009,07,03,11,05,21.20
2009,07,03,11,06,21.20
2009,07,03,11,07,21.20
2009,07,03,11,08,21.20
2009,07,03,11,09,21.20
2009,07,03,11,10,21.20
2009,07,03,11,11,21.20
2009,07,03,11,12,21.20
2009,07,03,11,13,21.30
2009,07,03,11,14,21.30
2009,07,03,11,15,21.40
2009,07,03,11,16,21.50
2009,07,03,11,17,21.60
2009,07,03,11,18,21.70
2009,07,03,11,19,21.80
2009,07,03,11,20,21.80
2009,07,03,11,21,21.90
2009,07,03,11,22,21.90
2009,07,03,11,23,22.00
2009,07,03,11,24,22.10
2009,07,03,11,25,22.10
2009,07,03,11,26,22.10
2009,07,03,11,27,22.10
2009,07,03,11,28,22.00
2009,07,03,11,29,21.80
2009,07,03,11,30,21.60
2009,07,03,11,31,21.50
2009,07,03,11,32,21.40
2009,07,03,11,33,21.30
2009,07,03,11,34,21.20
2009,07,03,11,35,21.20
2009,07,03,11,36,21.20
2009,07,03,11,37,21.10
2009,07,03,11,38,21.00
2009,07,03,11,39,21.00
2009,07,03,11,40,21.10
2009,07,03,11,41,21.20
2009,07,03,11,42,21.30
2009,07,03,11,43,21.30
2009,07,03,11,44,21.30
2009,07,03,11,45,21.20
2009,07,03,11,46,21.20
2009,07,03,11,47,21.20
2009,07,03,11,48,21.20
2009,07,03,11,49,21.20
2009,07,03,11,50,21.20
2009,07,03,11,51,21.30
2009,07,03,11,52,21.40
2009,07,03,11,53,21.40
2009,07,03,11,54,21.60
2009,07,03,11,55,21.60
2009,07,03,11,56,21.70
2009,07,03,11,57,21.80
2009,07,03,11,58,21.70
2009,07,03,11,59,21.70
2009,07,03,12,00,21.70
2009,07,03,12,01,21.70
2009,07,03,12,02,21.60
2009,07,03,12,03,21.70
2009,07,03,12,04,21.70
2009,07,03,12,05,21.80
2009,07,03,12,06,22.00
2009,07,03,12,07,22.10
2009,07,03,12,08,22.20
2009,07,03,12,09,22.40
2009,07,03,12,10,22.50
2009,07,03,12,11,22.60
2009,07,03,12,12,22.70
2009,07,03,12,13,22.70
2009,07,03,12,14,22.70
2009,07,03,12,15,22.70
2009,07,03,12,16,22.60
2009,07,03,12,17,22.60
2009,07,03,12,18,22.70
2009,07,03,12,19,22.60
2009,07,03,12,20,22.60
2009,07,03,12,21,22.60
2009,07,03,12,22,22.50
2009,07,03,12,23,22.60
2009,07,03,12,24,22.70
2009,07,03,12,25,22.80
2009,07,03,12,26,22.80
2009,07,03,12,27,22.90
2009,07,03,12,28,23.00
2009,07,03,12,29,23.00
2009,07,03,12,30,22.90
2009,07,03,12,31,22.90
2009,07,03,12,32,23.00
2009,07,03,12,33,23.10
2009,07,03,12,34,23.10
2009,07,03,12,35,23.00
2009,07,03,12,36,23.00
2009,07,03,12,37,23.00
2009,07,03,12,38,23.00
2009,07,03,12,39,22.90
2009,07,03,12,40,22.90
2009,07,03,12,41,22.70
2009,07,03,12,42,22.60
2009,07,03,12,43,22.40
2009,07,03,12,44,22.30
2009,07,03,12,45,22.10
2009,07,03,12,46,22.10
2009,07,03,12,47,22.10
2009,07,03,12,48,22.20
2009,07,03,12,49,22.20
2009,07,03,12,50,22.30
2009,07,03,12,51,22.30
2009,07,03,12,52,22.50
2009,07,03,12,53,22.60
2009,07,03,12,54,22.60
2009,07,03,12,55,22.60
2009,07,03,12,56,22.60
2009,07,03,12,57,22.40
2009,07,03,12,58,22.30
2009,07,03,12,59,22.20
2009,07,03,13,00,22.10
2009,07,03,13,01,22.00
2009,07,03,13,02,22.00
2009,07,03,13,03,21.90
2009,07,03,13,04,21.80
2009,07,03,13,05,21.90
2009,07,03,13,06,21.90
2009,07,03,13,07,21.90
2009,07,03,13,08,22.00
2009,07,03,13,09,22.10
2009,07,03,13,10,22.20
2009,07,03,13,11,22.30
2009,07,03,13,12,22.40
2009,07,03,13,13,22.60
2009,07,03,13,14,22.80
2009,07,03,13,15,22.90
2009,07,03,13,16,22.90
2009,07,03,13,17,22.80
2009,07,03,13,18,22.80
2009,07,03,13,19,22.80
2009,07,03,13,20,22.80
2009,07,03,13,21,22.80
2009,07,03,13,22,22.80
2009,07,03,13,23,22.90
2009,07,03,13,24,23.00
2009,07,03,13,25,23.10
2009,07,03,13,26,23.10
2009,07,03,13,27,23.00
2009,07,03,13,28,22.90
2009,07,03,13,29,22.70
2009,07,03,13,30,22.70
2009,07,03,13,31,22.70
2009,07,03,13,32,22.80
2009,07,03,13,33,22.80
2009,07,03,13,34,22.80
2009,07,03,13,35,22.70
2009,07,03,13,36,22.70
2009,07,03,13,37,22.70
2009,07,03,13,38,22.70
2009,07,03,13,39,22.80
2009,07,03,13,40,22.80
2009,07,03,13,41,22.80
2009,07,03,13,42,22.90
2009,07,03,13,43,22.90
2009,07,03,13,44,22.90
2009,07,03,13,45,22.80
2009,07,03,13,46,22.80
2009,07,03,13,47,22.90
2009,07,03,13,48,22.90
2009,07,03,13,49,22.90
2009,07,03,13,50,22.90
2009,07,03,13,51,22.80
2009,07,03,13,52,22.80
2009,07,03,13,53,22.90
2009,07,03,13,54,23.00
2009,07,03,13,55,23.10
2009,07,03,13,56,23.10
2009,07,03,13,57,23.10
2009,07,03,13,58,23.20
2009,07,03,13,59,23.30
2009,07,03,14,00,23.30
2009,07,03,14,01,23.40
2009,07,03,14,02,23.50
2009,07,03,14,03,23.50
2009,07,03,14,04,23.60
2009,07,03,14,05,23.70
2009,07,03,14,06,23.70
2009,07,03,14,07,23.80
2009,07,03,14,08,23.70
2009,07,03,14,09,23.80
2009,07,03,14,10,23.70
2009,07,03,14,11,23.60
2009,07,03,14,12,23.60
2009,07,03,14,13,23.70
2009,07,03,14,14,23.70
2009,07,03,14,15,23.70
2009,07,03,14,16,23.70
2009,07,03,14,17,23.80
2009,07,03,14,18,23.90
2009,07,03,14,19,23.90
2009,07,03,14,20,23.90
2009,07,03,14,21,23.80
2009,07,03,14,22,23.80
2009,07,03,14,23,23.80
2009,07,03,14,24,23.80
2009,07,03,14,25,23.80
2009,07,03,14,26,23.70
2009,07,03,14,27,23.70
2009,07,03,14,28,23.70
2009,07,03,14,29,23.70
2009,07,03,14,30,23.70
2009,07,03,14,31,23.70
2009,07,03,14,32,23.80
2009,07,03,14,33,23.80
2009,07,03,14,34,23.80
2009,07,03,14,35,23.80
2009,07,03,14,36,23.80
2009,07,03,14,37,23.90
2009,07,03,14,38,24.00
2009,07,03,14,39,24.00
2009,07,03,14,40,24.10
2009,07,03,14,41,24.20
2009,07,03,14,42,24.30
2009,07,03,14,43,24.40
2009,07,03,14,44,24.40
2009,07,03,14,45,24.50
2009,07,03,14,46,24.50
2009,07,03,14,47,24.60
2009,07,03,14,48,24.70
2009,07,03,14,49,24.70
2009,07,03,14,50,24.60
2009,07,03,14,51,24.60
2009,07,03,14,52,24.50
2009,07,03,14,53,24.40
2009,07,03,14,54,24.40
2009,07,03,14,55,24.30
2009,07,03,14,56,24.30
2009,07,03,14,57,24.30
2009,07,03,14,58,24.30
2009,07,03,14,59,24.40
2009,07,03,15,00,24.40
2009,07,03,15,01,24.40
2009,07,03,15,02,24.50
2009,07,03,15,03,24.50
2009,07,03,15,04,24.60
2009,07,03,15,05,24.70
2009,07,03,15,06,24.80
2009,07,03,15,07,24.80
2009,07,03,15,08,24.90
2009,07,03,15,09,24.90
2009,07,03,15,10,25.00
2009,07,03,15,11,25.20
2009,07,03,15,12,25.30
2009,07,03,15,13,25.50
2009,07,03,15,14,25.50
2009,07,03,15,15,25.50
2009,07,03,15,16,25.50
2009,07,03,15,17,25.50
2009,07,03,15,18,25.50
2009,07,03,15,19,25.50
2009,07,03,15,20,25.60
2009,07,03,15,21,25.60
2009,07,03,15,22,25.50
2009,07,03,15,23,25.40
2009,07,03,15,24,25.40
2009,07,03,15,25,25.40
2009,07,03,15,26,25.50
2009,07,03,15,27,25.50
2009,07,03,15,28,25.60
2009,07,03,15,29,25.80
2009,07,03,15,30,25.90
2009,07,03,15,31,25.90
2009,07,03,15,32,26.00
2009,07,03,15,33,26.10
2009,07,03,15,34,26.10
2009,07,03,15,35,26.00
2009,07,03,15,36,26.10
2009,07,03,15,37,26.10
2009,07,03,15,38,26.10
2009,07,03,15,39,26.10
2009,07,03,15,40,26.20
2009,07,03,15,41,26.10
2009,07,03,15,42,26.00
2009,07,03,15,43,25.90
2009,07,03,15,44,25.90
2009,07,03,15,45,25.80
2009,07,03,15,46,25.80
2009,07,03,15,47,25.80
2009,07,03,15,48,25.90
2009,07,03,15,49,25.90
2009,07,03,15,50,25.90
2009,07,03,15,51,26.00
2009,07,03,15,52,26.10
2009,07,03,15,53,26.20
2009,07,03,15,54,26.40
2009,07,03,15,55,26.40
2009,07,03,15,56,26.40
2009,07,03,15,57,26.40
2009,07,03,15,58,26.30
2009,07,03,15,59,26.30
2009,07,03,16,00,26.20
2009,07,03,16,01,26.20
2009,07,03,16,02,26.10
2009,07,03,16,03,26.10
2009,07,03,16,04,26.00
2009,07,03,16,05,26.00
2009,07,03,16,06,26.00
2009,07,03,16,07,25.90
2009,07,03,16,08,25.90
2009,07,03,16,09,26.00
2009,07,03,16,10,26.10
2009,07,03,16,11,26.20
2009,07,03,16,12,26.20
2009,07,03,16,13,26.30
2009,07,03,16,14,26.40
2009,07,03,16,15,26.50
2009,07,03,16,16,26.60
2009,07,03,16,17,26.60
2009,07,03,16,18,26.60
2009,07,03,16,19,26.60
2009,07,03,16,20,26.60
2009,07,03,16,21,26.60
2009,07,03,16,22,26.60
2009,07,03,16,23,26.60
2009,07,03,16,24,26.60
2009,07,03,16,25,26.60
2009,07,03,16,26,26.70
2009,07,03,16,27,26.80
2009,07,03,16,28,26.80
2009,07,03,16,29,26.90
2009,07,03,16,30,26.90
2009,07,03,16,31,27.00
2009,07,03,16,32,27.00
2009,07,03,16,33,27.10
2009,07,03,16,34,27.10
2009,07,03,16,35,27.10
2009,07,03,16,36,27.00
2009,07,03,16,37,27.00
2009,07,03,16,38,26.80
2009,07,03,16,39,26.80
2009,07,03,16,40,26.80
2009,07,03,16,41,26.80
2009,07,03,16,42,26.80
2009,07,03,16,43,26.90
2009,07,03,16,44,27.00
2009,07,03,16,45,27.00
2009,07,03,16,46,27.10
2009,07,03,16,47,27.10
2009,07,03,16,48,27.20
2009,07,03,16,49,27.30
2009,07,03,16,50,27.30
2009,07,03,16,51,27.30
2009,07,03,16,52,27.40
2009,07,03,16,53,27.40
2009,07,03,16,54,27.40
2009,07,03,16,55,27.40
2009,07,03,16,56,27.30
2009,07,03,16,57,27.30
2009,07,03,16,58,27.20
2009,07,03,16,59,27.10
2009,07,03,17,00,27.10
2009,07,03,17,01,27.10
2009,07,03,17,02,27.00
2009,07,03,17,03,26.90
2009,07,03,17,04,26.80
2009,07,03,17,05,26.80
2009,07,03,17,06,26.70
2009,07,03,17,07,26.70
2009,07,03,17,08,26.60
2009,07,03,17,09,26.60
2009,07,03,17,10,26.60
2009,07,03,17,11,26.60
2009,07,03,17,12,26.60
2009,07,03,17,13,26.60
2009,07,03,17,14,26.60
2009,07,03,17,15,26.70
2009,07,03,17,16,26.70
2009,07,03,17,17,26.70
2009,07,03,17,18,26.70
2009,07,03,17,19,26.80
2009,07,03,17,20,26.90
2009,07,03,17,21,27.00
2009,07,03,17,22,27.10
2009,07,03,17,23,27.10